SCP
0 0 0 0 0 0 0 0 0 0 0 0 0 0 0 0 0 0 0 0 0 0 0 0 0 0 0 0 0 0 0 0 0 0 0 0 0 0 0 0 0 0 0 0 0 0 0 0 0
0 0 0 0 0 0 0 0 0 0 0 0 0 0 0 0 0 0 0 0 0 0 0 0 0 0 0 0 0 0 0 0 0 0 0 0 0 0 0 0 0 0 0 0 0 0 0 0 0
0 0 0 0 0 0 0 0 0 0 0 0 0 0 0 0 0 0 0 0 0 0 0 0 0 0 0 0 0 0 0 0 0 0 0 0 0 0 0 0 0 0 0 0 0 0 0 0 0
0 0 0 0 0 0 0 0 0 0 0 0 0 0 0 0 0 0 0 0 0 0 0 0 0 0 0 0 0 0 0 0 0 0 0 0 0 0 0 0 0 0 0 0 0 0 0 0 0
0 0 0 0 0 0 0 0 0 0 0 0 0 0 0 0 0 0 0 0 0 0 0 0 0 0 0 0 0 0 0 0 0 0 0 0 0 0 0 0 0 0 0 0 0 0 0 0 0
0 0 0 0 0 0 0 0 0 0 0 0 0 0 0 0 0 0 0 0 0 0 0 0 0 0 0 0 0 0 0 0 0 0 0 0 0 0 0 0 0 0 0 0 0 0 0 0 0
0 0 0 0 0 0 0 0 0 0 0 0 0 0 0 0 0 0 0 0 0 0 0 0 0 0 0 0 0 0 0 0 0 0 0 0 0 0 0 0 0 0 0 0 0 0 0 0 0
0 0 0 0 0 0 0 0 0 0 0 0 0 0 0 0 0 0 0 0 0 0 0 0 0 0 0 0 0 0 0 0 0 0 0 0 0 0 0 0 0 0 0 0 0 0 0 0 0
0 0 0 0 0 0 0 0 0 0 0 0 0 0 0 0 0 0 0 0 0 0 0 0 0 0 0 0 0 0 0 0 0 0 0 0 0 0 0 0 0 0 0 0 0 0 0 0 0
0 0 0 0 0 0 0 0 0 0 0 0 0 0 0 0 0 0 0 0 0 0 0 0 0 0 0 0 0 0 0 0 0 0 0 0 0 0 0 0 0 0 0 0 0 0 0 0 0
0 0 0 0 0 0 0 0 0 0 0 0 0 0 0 0 0 0 0 0 0 0 0 0 0 0 0 0 0 0 0 0 0 0 0 0 0 0 0 0 0 0 0 0 0 0 0 0 0
0 0 0 0 0 0 0 0 0 0 0 0 0 0 0 0 0 0 0 0 0 0 0 0 0 0 0 0 0 0 0 0 0 0 0 0 0 0 0 0 0 0 0 0 0 0 0 0 0
0 0 0 0 0 0 0 0 0 0 0 0 0 0 0 0 0 0 0 0 0 0 0 0 0 0 0 0 0 0 0 0 0 0 0 0 0 0 0 0 0 0 0 0 0 0 0 0 0
0 0 0 0 0 0 0 0 0 0 0 0 0 0 0 0 0 0 0 0 0 0 0 0 0 0 0 0 0 0 0 0 0 0 0 0 0 0 0 0 0 0 0 0 0 0 0 0 0
0 0 0 0 0 0 0 0 0 0 0 0 0 0 0 0 0 0 0 0 0 0 0 0 0 0 0 0 0 0 0 0 0 0 0 0 0 0 0 0 0 0 0 0 0 0 0 0 0
0 0 0 0 0 0 0 0 0 0 0 0 0 0 0 0 0 0 0 0 0 0 0 0 0 0 0 0 0 0 0 0 0 0 0 0 0 0 0 0 0 0 0 0 0 0 0 0 0
0 0 0 0 0 0 0 0 0 0 0 0 0 0 0 0 0 0 0 0 0 0 0 0 0 0 0 0 0 0 0 0 0 0 0 0 0 0 0 0 0 0 0 0 0 0 0 0 0
0 0 0 0 0 0 0 0 0 0 0 0 0 0 0 0 0 0 0 0 0 0 0 0 0 0 0 0 0 0 0 0 0 0 0 0 0 0 0 0 0 0 0 0 0 0 0 0 0
0 0 0 0 0 0 0 0 0 0 0 0 0 0 0 0 0 0 1 1 1 1 1 0 0 0 0 0 0 0 0 0 0 0 0 0 0 0 0 0 0 0 0 0 0 0 0 0 0
0 0 0 0 0 0 0 0 0 0 0 0 0 0 0 0 0 0 1 1 1 1 1 0 0 0 0 0 0 0 0 0 0 0 0 0 0 0 0 0 0 0 0 0 0 0 0 0 0
0 0 0 0 0 0 0 0 0 0 0 0 0 0 0 0 0 1 1 1 1 1 0 0 0 0 0 0 0 0 0 0 0 0 0 0 0 0 0 0 0 0 0 0 0 0 0 0 0
0 0 0 0 0 0 0 0 0 0 0 0 0 0 0 0 1 1 1 1 1 1 0 0 0 0 0 0 0 0 0 0 0 0 0 0 0 0 0 0 0 0 0 0 0 0 0 0 0
0 0 0 0 0 0 0 0 0 0 0 0 0 0 0 0 1 1 1 1 1 1 0 0 0 0 0 0 0 0 0 0 0 0 0 0 0 0 0 0 0 0 0 0 0 0 0 0 0
0 0 0 0 0 0 0 0 0 0 0 0 0 0 0 0 1 1 1 1 1 1 1 0 0 0 0 0 0 0 0 0 0 0 0 0 0 0 0 0 0 0 0 0 0 0 0 0 0
0 0 0 0 0 0 0 0 0 0 0 0 0 0 0 0 1 1 1 1 1 1 1 1 1 0 0 0 0 0 0 0 0 0 0 0 0 0 0 0 0 0 0 0 0 0 0 0 0
0 0 0 0 0 0 0 0 0 0 0 0 0 0 0 0 1 1 1 1 1 1 1 1 1 1 0 0 0 0 0 0 0 0 0 0 0 0 0 0 0 0 0 0 0 0 0 0 0
0 0 0 0 0 0 0 0 0 0 0 0 0 0 0 0 0 0 0 1 1 1 1 1 1 1 0 0 0 0 0 0 0 0 0 0 0 0 0 0 0 0 0 0 0 0 0 0 0
0 0 0 0 0 0 0 0 0 0 0 0 0 0 0 0 0 0 0 1 1 1 1 1 1 1 0 0 0 0 0 0 0 0 0 0 0 0 0 0 0 0 0 0 0 0 0 0 0
0 0 0 0 0 0 0 0 0 0 0 0 0 0 0 0 0 0 0 1 1 1 1 1 1 1 1 0 0 0 0 0 0 0 0 0 0 0 0 0 0 0 0 0 0 0 0 0 0
0 0 0 0 0 0 0 0 0 0 0 0 0 0 0 0 0 0 1 1 1 1 1 1 1 1 1 0 0 0 0 0 0 0 0 0 0 0 0 0 0 0 0 0 0 0 0 0 0
Wind_Speed
9 7 3 1 3 5 4 3 5 6 6 7 9 9 9 7 5 5 2 5 6 4 3 6 9 11 12 12 12 13 14 14 15 15 15 15 15 15 15 15 14 14 13 13 13 12 12 13 13
6 4 1 2 5 4 3 4 8 9 10 10 11 11 10 8 7 8 4 5 6 5 4 6 10 11 12 12 12 13 13 14 14 14 14 14 14 14 14 14 14 13 13 12 12 12 12 12 12
5 2 2 3 3 4 4 5 9 11 10 9 7 7 6 6 7 5 5 8 6 5 4 6 12 12 12 12 12 13 13 13 13 13 14 14 14 13 14 13 13 13 12 11 11 11 11 11 10
2 2 3 4 4 3 6 7 10 13 10 9 8 7 5 5 5 8 10 9 8 5 4 7 12 12 12 12 12 12 12 12 12 13 13 14 14 13 13 13 13 12 11 11 10 10 10 10 9
1 3 4 3 4 4 7 9 12 11 8 10 11 9 6 5 12 12 11 10 9 6 4 6 11 11 11 11 11 11 11 12 12 12 13 13 13 13 12 12 12 11 11 10 9 9 9 10 9
2 3 3 3 5 5 7 12 13 14 14 12 11 9 5 7 11 11 10 9 9 7 5 5 10 11 10 10 10 10 10 11 11 12 12 13 12 12 11 11 11 11 10 10 9 8 9 8 7
3 3 2 4 6 7 9 10 11 13 12 9 9 7 5 6 8 10 9 9 8 7 5 4 4 6 9 9 9 9 10 10 11 11 12 12 12 11 11 10 10 10 9 9 8 7 7 6 5
4 4 2 4 7 7 7 8 9 12 10 10 8 7 6 6 8 9 9 8 7 6 5 4 3 3 3 5 8 9 9 9 11 11 12 12 12 11 10 9 9 9 8 8 7 7 6 5 4
4 4 3 5 7 7 9 12 9 10 13 8 7 9 10 11 11 9 8 7 5 5 3 4 3 3 3 3 6 7 8 9 9 9 11 9 5 4 5 7 8 8 7 7 6 5 4 3 2
5 4 5 5 8 9 11 12 9 10 12 12 12 11 11 11 10 10 9 7 6 5 4 3 3 3 3 3 3 2 3 3 3 3 4 4 3 3 4 5 7 7 6 6 5 4 3 1 0
5 6 5 7 8 11 11 9 8 11 10 12 14 13 11 10 9 8 7 7 7 7 6 4 4 4 3 2 3 2 1 2 2 3 3 3 3 2 2 2 2 3 3 2 2 1 0 0 1
5 5 7 7 8 10 10 9 8 9 11 13 14 12 10 10 8 8 8 6 6 6 6 5 4 4 4 3 3 2 2 2 2 2 3 3 2 2 2 2 2 1 1 1 1 1 1 1 1
6 5 6 7 9 10 11 11 10 10 13 13 13 12 10 9 7 6 7 6 6 6 5 5 5 5 4 4 3 3 2 3 2 2 2 3 3 3 2 2 2 2 1 2 2 2 1 1 1
5 8 7 8 8 10 13 10 8 11 13 13 12 10 9 9 9 7 6 6 6 6 5 4 5 5 5 4 3 3 3 3 3 2 3 3 3 3 3 2 2 2 2 2 2 2 2 1 1
5 7 5 5 7 7 11 7 9 13 13 13 12 10 10 9 9 9 8 7 7 7 6 5 5 5 5 4 3 3 2 3 3 2 2 3 3 3 3 2 1 1 2 2 1 1 1 1 1
4 5 2 2 5 6 8 7 9 11 14 12 11 11 9 8 9 8 8 7 7 7 6 5 5 5 4 3 3 2 2 3 2 2 2 2 2 3 2 2 1 1 2 2 2 1 1 1 1
4 2 2 3 5 6 6 7 10 11 13 11 11 11 10 8 7 7 8 8 8 8 6 5 5 5 3 3 3 3 3 2 2 2 1 1 2 2 2 2 1 2 2 1 1 1 2 2 1
3 3 3 4 5 6 5 6 11 12 13 12 11 10 10 10 9 9 8 8 8 7 6 6 5 4 4 3 2 3 3 2 1 1 1 2 1 2 2 2 1 2 2 1 1 1 1 1 2
6 4 4 5 3 5 6 8 11 11 10 11 11 11 11 10 9 9 9 9 8 7 6 6 5 4 3 2 2 2 1 1 1 1 1 2 2 2 2 2 1 2 2 1 1 1 1 1 2
5 4 4 3 3 5 6 6 9 11 13 13 14 13 12 10 9 9 8 9 8 7 6 6 5 4 4 3 2 2 2 1 1 0 1 1 2 2 2 2 2 2 2 2 2 2 1 1 1
7 8 7 5 2 3 6 0 3 6 7 8 10 11 13 15 14 12 10 9 9 8 8 7 6 5 4 3 2 2 2 2 2 1 0 1 2 2 2 3 2 2 2 2 2 2 2 1 0
7 9 8 7 5 2 5 3 6 7 6 8 9 10 13 13 13 12 12 10 10 9 8 7 7 6 5 4 4 4 3 2 2 1 1 0 1 1 2 2 2 2 2 2 1 2 1 2 1
6 5 5 6 6 2 1 4 6 4 7 10 11 12 14 14 15 15 14 13 11 10 9 7 6 5 5 5 5 4 3 2 1 1 1 1 1 1 2 2 2 2 1 2 1 1 1 1 2
3 4 5 5 5 1 5 4 6 8 13 12 12 12 13 14 15 14 12 10 9 9 8 8 7 5 5 5 4 4 4 3 2 2 1 1 0 0 1 2 1 1 2 2 1 1 2 1 1
4 6 4 4 3 5 4 3 9 10 12 14 14 13 13 14 15 14 13 12 11 10 10 9 8 6 5 5 5 4 4 4 4 3 3 2 1 0 1 1 1 1 1 2 2 2 1 1 1
3 9 8 5 4 4 2 4 8 7 9 11 12 12 13 14 14 15 15 14 13 13 11 10 9 7 7 6 5 4 4 3 2 3 3 2 2 2 1 1 2 2 2 2 2 2 1 2 2
4 4 8 7 2 1 4 5 5 3 6 8 9 11 13 14 15 15 14 14 13 13 13 12 11 9 8 7 5 4 4 3 3 3 2 2 1 1 1 2 2 2 2 2 3 2 1 2 1
7 7 5 5 4 2 4 4 5 5 8 9 10 12 13 13 13 14 13 13 12 12 11 11 11 10 8 7 6 5 4 4 4 3 3 2 2 1 2 2 2 2 2 2 2 2 1 2 1
1 2 5 4 6 6 3 7 7 9 9 10 10 12 14 14 14 14 12 12 12 11 10 10 10 8 8 7 6 6 5 4 4 3 3 3 2 2 3 3 3 2 2 2 2 1 1 2 1
5 5 6 5 4 5 4 9 6 7 8 8 9 11 13 14 13 13 13 12 12 12 11 10 10 9 9 8 7 6 5 5 4 4 3 3 3 3 3 3 3 3 2 2 2 2 2 2 1
Wind_Direction
165 155 161 132 47 57 78 90 95 79 65 64 74 78 78 67 89 118 156 130 120 115 109 107 105 106 108 109 111 111 110 111 112 112 115 117 117 118 120 120 122 124 123 123 124 125 126 126 127
160 164 136 58 73 80 81 102 88 94 112 101 79 80 74 71 87 112 126 136 123 116 108 110 110 111 111 110 112 114 114 114 113 114 118 118 119 120 121 121 123 123 122 124 125 127 130 131 131
158 154 82 64 89 123 126 114 104 101 103 97 88 66 66 94 104 120 144 138 118 109 104 114 110 112 112 111 111 114 116 115 116 118 120 121 120 121 121 121 122 122 121 124 127 132 133 132 133
144 74 45 73 104 136 132 126 111 103 86 80 90 73 64 89 106 127 135 129 115 107 102 113 112 110 111 113 114 115 117 120 121 121 122 124 122 120 120 121 122 121 121 122 127 133 138 136 135
99 75 53 70 99 113 121 114 110 102 89 91 91 96 84 78 111 125 130 125 122 116 108 113 117 116 115 115 116 118 121 125 126 127 127 127 125 123 122 121 123 122 121 118 120 129 138 136 135
68 65 70 88 94 97 107 111 107 102 106 104 99 102 98 113 121 130 129 127 129 127 121 121 122 121 120 120 121 124 128 128 131 133 133 131 128 125 125 124 123 123 120 118 118 123 128 131 132
112 94 121 120 108 105 111 113 111 116 114 111 116 102 117 128 133 133 129 125 125 126 123 116 121 124 126 127 127 128 128 130 135 137 138 137 133 130 129 126 125 125 124 124 126 124 128 136 138
146 106 98 108 109 107 109 101 111 117 109 119 119 115 138 153 133 125 123 120 120 121 125 124 116 110 117 125 133 136 133 133 137 140 141 141 140 140 136 134 136 137 136 137 139 140 140 139 139
118 87 136 143 125 125 111 101 94 97 110 113 100 120 142 137 125 119 116 111 117 120 124 130 123 119 121 132 137 138 136 134 136 139 142 137 132 138 142 147 150 152 152 153 154 155 153 151 139
118 131 178 161 138 133 125 118 116 105 103 103 106 114 126 127 127 128 130 134 137 139 144 144 140 139 138 136 114 112 121 119 117 124 135 132 136 149 158 165 166 165 167 169 169 172 172 165 85
133 154 147 126 131 129 125 121 112 116 117 133 136 138 135 129 129 133 136 144 147 152 153 153 151 146 141 121 124 118 108 106 117 133 143 140 138 143 149 148 165 172 175 173 178 190 183 155 181
138 145 132 133 128 121 124 121 112 121 137 142 138 138 134 132 133 136 135 138 132 138 146 143 143 135 135 129 131 134 132 125 134 153 147 139 135 138 147 151 159 162 159 156 146 157 185 201 208
119 118 115 126 115 112 113 115 115 123 131 135 134 133 137 136 139 139 136 129 124 122 123 125 127 125 126 120 130 133 140 142 144 140 141 143 140 147 153 153 160 172 169 170 158 171 177 192 218
132 123 120 125 115 121 121 121 112 137 137 137 136 139 143 142 144 135 129 127 126 125 129 126 117 116 114 109 113 122 132 133 127 130 134 136 139 145 148 153 162 169 173 171 167 176 174 187 174
97 99 101 125 119 128 115 107 137 151 143 142 144 146 144 146 142 144 148 144 140 138 138 139 126 113 111 110 109 114 125 126 126 129 129 131 130 135 139 141 150 165 156 154 152 155 145 146 130
68 79 91 229 139 148 115 146 163 157 147 150 152 150 147 152 150 150 148 145 142 140 143 150 133 122 117 111 104 100 108 116 122 128 126 128 127 129 120 126 156 159 140 141 147 138 116 101 103
40 104 181 225 180 155 131 162 173 165 153 157 160 158 156 156 155 156 154 151 149 148 146 141 132 133 127 110 101 97 101 108 119 119 116 126 129 131 126 144 153 137 130 134 158 140 139 139 136
202 195 201 217 203 150 142 165 167 171 164 164 166 165 162 164 170 165 159 155 150 148 142 140 137 136 126 110 89 82 79 88 103 119 129 133 135 127 129 138 129 127 120 111 108 125 121 154 157
185 196 226 240 194 139 150 159 172 173 170 170 170 172 172 173 172 163 158 155 149 146 143 144 143 145 127 112 113 111 106 108 104 152 155 139 138 134 115 118 108 110 124 143 138 117 97 85 112
189 209 226 245 176 138 150 170 184 180 183 181 179 178 178 170 165 166 161 158 157 159 154 149 153 150 144 140 144 147 144 154 157 135 105 131 130 134 124 116 118 120 121 109 108 104 104 98 116
211 204 203 184 146 92 116 64 220 206 187 183 186 181 177 174 172 171 169 167 164 166 165 162 160 157 156 144 118 100 72 51 51 50 42 73 115 110 109 123 120 117 124 130 135 122 126 143 238
227 220 196 167 129 187 151 191 252 209 194 190 190 185 182 178 173 173 172 171 173 174 166 157 159 159 158 146 134 137 139 147 188 178 155 47 90 99 114 121 118 122 126 133 150 131 127 136 158
223 207 177 167 146 138 179 153 262 189 201 203 197 192 186 181 176 177 177 176 175 171 165 161 156 156 156 149 147 141 141 158 156 114 109 74 51 86 111 119 116 128 134 134 118 110 114 132 149
181 62 48 58 81 162 227 168 247 205 203 198 195 191 185 181 179 178 176 169 169 167 163 160 155 157 155 151 148 151 157 158 143 137 142 126 45 35 98 121 120 130 132 135 135 120 123 120 120
97 89 41 5 11 252 239 189 239 223 198 188 184 185 182 178 177 175 173 172 171 170 169 163 160 161 163 159 160 163 165 163 165 167 166 160 153 185 226 133 123 127 137 134 120 108 109 109 112
177 139 155 188 213 269 293 228 254 223 190 179 176 174 175 174 176 179 179 177 175 174 172 167 167 169 171 169 171 167 163 160 166 163 159 168 180 200 188 141 125 121 118 110 102 90 100 85 84
153 173 168 142 172 247 280 280 316 118 145 163 170 170 177 177 177 179 179 178 176 174 175 173 172 172 175 174 168 164 161 156 156 152 149 159 176 178 154 140 132 124 116 112 107 92 89 91 85
164 159 101 119 149 237 280 257 228 194 177 176 182 182 181 179 174 173 173 176 176 174 173 171 172 175 174 173 172 170 169 165 158 148 154 159 168 156 140 136 136 129 121 117 109 107 110 104 82
165 119 117 127 153 159 225 260 223 195 186 183 187 184 176 175 174 173 173 173 171 169 168 169 173 171 172 174 173 170 170 170 163 162 170 169 163 156 148 143 141 138 136 130 124 139 128 119 92
177 174 144 155 209 164 175 261 251 195 183 177 178 179 174 170 170 168 166 165 165 167 169 171 173 173 175 174 171 174 170 169 168 174 179 173 167 163 159 151 150 157 158 153 151 166 148 144 149